• In Deutschland
  • Länderverzeichnis
  • Für 7 Tage
  • Wassertemperatur
  • Satellitenkarten
  • Wetterkarte
  • Widgets
  • user-avatar
    Anmelden

    Stündliche Wetter Pfaffenhofen an der Ilm

    Heute, 20 Juni, Mittwoch

    Zeit Temperatur Niederschläge Wind Luftdruck Luftfeuchtigkeit
    00:00 +19°C° 0 mm 1 m/S 730 mmHg 86%
    01:00 +19°C° 0 mm 1 m/S 729 mmHg 86%
    02:00 +18°C° 0 mm 1 m/S 729 mmHg 86%
    03:00 +18°C° 0 mm 1 m/S 729 mmHg 87%
    04:00 +18°C° 0 mm 1 m/S 729 mmHg 87%
    05:00 +19°C° 0 mm 1 m/S 729 mmHg 84%
    06:00 +20°C° 0 mm 1 m/S 729 mmHg 82%
    07:00 +21°C° 0 mm 1 m/S 729 mmHg 79%
    08:00 +23°C° 0 mm 1 m/S 729 mmHg 73%
    09:00 +24°C° 0 mm 2 m/S 729 mmHg 67%
    10:00 +25°C° 0 mm 2 m/S 729 mmHg 60%
    11:00 +26°C° 0 mm 2 m/S 728 mmHg 59%
    12:00 +27°C° 0 mm 2 m/S 728 mmHg 57%
    13:00 +28°C° 0 mm 2 m/S 728 mmHg 55%
    14:00 +28°C° 0 mm 2 m/S 728 mmHg 55%
    15:00 +28°C° 0 mm 2 m/S 727 mmHg 56%
    16:00 +28°C° 0 mm 2 m/S 727 mmHg 57%
    17:00 +27°C° 0 mm 2 m/S 727 mmHg 62%
    18:00 +26°C° 0 mm 1 m/S 727 mmHg 68%
    19:00 +25°C° 0 mm 1 m/S 726 mmHg 73%
    20:00 +23°C° 0 mm 1 m/S 726 mmHg 77%
    21:00 +22°C° 0 mm 1 m/S 726 mmHg 81%
    22:00 +18°C° 0 mm 0 m/S 726 mmHg 84%
    23:00 +18°C° 0 mm 0 m/S 726 mmHg 85%

    Morgen, 21 Juni, Donnerstag

    Zeit Temperatur Niederschläge Wind Luftdruck Luftfeuchtigkeit
    00:00 +17°C° 0 mm 0 m/S 726 mmHg 87%
    01:00 +17°C° 0 mm 0 m/S 726 mmHg 88%
    02:00 +19°C° 0 mm 1 m/S 726 mmHg 89%
    03:00 +18°C° 0 mm 1 m/S 725 mmHg 90%
    04:00 +18°C° 0 mm 1 m/S 725 mmHg 91%
    05:00 +19°C° 0 mm 1 m/S 725 mmHg 88%
    06:00 +21°C° 0 mm 1 m/S 725 mmHg 85%
    07:00 +21°C° 0 mm 2 m/S 725 mmHg 82%
    08:00 +23°C° 0,1 mm 2 m/S 725 mmHg 77%
    09:00 +25°C° 0,1 mm 2 m/S 724 mmHg 73%
    10:00 +26°C° 0,1 mm 3 m/S 724 mmHg 68%
    11:00 +27°C° 0,9 mm 3 m/S 724 mmHg 69%
    12:00 +27°C° 0,9 mm 4 m/S 723 mmHg 71%
    13:00 +27°C° 0,9 mm 5 m/S 723 mmHg 72%
    14:00 +26°C° 0,5 mm 5 m/S 723 mmHg 70%
    15:00 +26°C° 0,5 mm 5 m/S 723 mmHg 69%
    16:00 +26°C° 0,5 mm 6 m/S 723 mmHg 67%
    17:00 +23°C° 0,1 mm 5 m/S 724 mmHg 71%
    18:00 +21°C° 0,1 mm 5 m/S 724 mmHg 75%
    19:00 +19°C° 0,1 mm 5 m/S 725 mmHg 78%
    20:00 +16°C° 0 mm 5 m/S 726 mmHg 75%
    21:00 +15°C° 0 mm 4 m/S 727 mmHg 71%
    22:00 +13°C° 0 mm 3 m/S 727 mmHg 68%
    23:00 +12°C° 0,1 mm 3 m/S 728 mmHg 70%

    übermorgen, 22 Juni, Freitag

    Zeit Temperatur Niederschläge Wind Luftdruck Luftfeuchtigkeit
    00:00 +12°C° 0,1 mm 2 m/S 728 mmHg 72%
    01:00 +10°C° 0,1 mm 2 m/S 728 mmHg 74%
    02:00 +9°C° 0 mm 2 m/S 728 mmHg 77%
    03:00 +8°C° 0 mm 2 m/S 728 mmHg 80%
    04:00 +7°C° 0 mm 2 m/S 728 mmHg 83%
    05:00 +8°C° 0 mm 2 m/S 729 mmHg 80%
    06:00 +9°C° 0 mm 3 m/S 729 mmHg 77%
    07:00 +10°C° 0 mm 3 m/S 729 mmHg 74%
    08:00 +11°C° 0 mm 3 m/S 729 mmHg 69%
    09:00 +13°C° 0 mm 4 m/S 729 mmHg 64%
    10:00 +14°C° 0 mm 4 m/S 729 mmHg 59%
    11:00 +14°C° 0 mm 4 m/S 729 mmHg 59%
    12:00 +15°C° 0 mm 5 m/S 728 mmHg 60%
    13:00 +15°C° 0 mm 5 m/S 728 mmHg 60%
    14:00 +15°C° 0 mm 5 m/S 728 mmHg 60%
    15:00 +17°C° 0 mm 4 m/S 728 mmHg 60%
    16:00 +17°C° 0 mm 4 m/S 728 mmHg 60%
    17:00 +15°C° 0 mm 4 m/S 728 mmHg 64%
    18:00 +16°C° 0 mm 3 m/S 728 mmHg 69%
    19:00 +15°C° 0 mm 2 m/S 728 mmHg 73%
    20:00 +14°C° 0 mm 2 m/S 728 mmHg 77%
    21:00 +12°C° 0 mm 2 m/S 729 mmHg 82%
    22:00 +10°C° 0 mm 2 m/S 729 mmHg 86%
    23:00 +10°C° 0 mm 2 m/S 729 mmHg 87%

    23 Juni, Samstag

    Zeit Temperatur Niederschläge Wind Luftdruck Luftfeuchtigkeit
    00:00 +9°C° 0 mm 2 m/S 729 mmHg 88%
    01:00 +9°C° 0 mm 2 m/S 729 mmHg 90%
    02:00 +8°C° 0 mm 2 m/S 729 mmHg 91%
    03:00 +9°C° 0 mm 1 m/S 729 mmHg 92%
    04:00 +9°C° 0 mm 1 m/S 729 mmHg 93%
    05:00 +9°C° 0 mm 2 m/S 729 mmHg 90%
    06:00 +10°C° 0 mm 2 m/S 729 mmHg 86%
    07:00 +12°C° 0 mm 2 m/S 729 mmHg 83%
    08:00 +13°C° 0 mm 2 m/S 729 mmHg 77%
    09:00 +14°C° 0 mm 2 m/S 729 mmHg 72%
    10:00 +15°C° 0 mm 2 m/S 729 mmHg 66%
    11:00 +16°C° 0 mm 3 m/S 728 mmHg 64%
    12:00 +16°C° 0 mm 3 m/S 728 mmHg 62%
    13:00 +17°C° 0 mm 3 m/S 728 mmHg 60%
    14:00 +17°C° 0 mm 3 m/S 728 mmHg 59%
    15:00 +18°C° 0 mm 3 m/S 728 mmHg 58%
    16:00 +18°C° 0 mm 3 m/S 728 mmHg 56%
    17:00 +17°C° 0 mm 3 m/S 728 mmHg 61%
    18:00 +16°C° 0 mm 2 m/S 728 mmHg 66%
    19:00 +16°C° 0 mm 2 m/S 728 mmHg 71%
    20:00 +14°C° 0 mm 2 m/S 728 mmHg 74%
    21:00 +13°C° 0 mm 1 m/S 728 mmHg 77%
    22:00 +12°C° 0 mm 1 m/S 729 mmHg 81%
    23:00 +12°C° 0 mm 1 m/S 729 mmHg 82%

    24 Juni, Sonntag

    Zeit Temperatur Niederschläge Wind Luftdruck Luftfeuchtigkeit
    00:00 +12°C° 0 mm 1 m/S 729 mmHg 83%
    01:00 +11°C° 0 mm 1 m/S 729 mmHg 84%
    02:00 +11°C° 0 mm 1 m/S 728 mmHg 86%
    03:00 +11°C° 0 mm 1 m/S 728 mmHg 88%
    04:00 +10°C° 0 mm 1 m/S 728 mmHg 89%
    05:00 +11°C° 0 mm 1 m/S 728 mmHg 87%
    06:00 +12°C° 0 mm 1 m/S 728 mmHg 84%
    07:00 +13°C° 0 mm 1 m/S 728 mmHg 82%
    08:00 +14°C° 0,1 mm 1 m/S 728 mmHg 76%
    09:00 +15°C° 0,1 mm 1 m/S 728 mmHg 71%
    10:00 +18°C° 0,1 mm 1 m/S 728 mmHg 65%
    11:00 +17°C° 0,1 mm 2 m/S 728 mmHg 63%
    12:00 +18°C° 0,1 mm 2 m/S 728 mmHg 61%
    13:00 +19°C° 0,1 mm 2 m/S 728 mmHg 59%
    14:00 +19°C° 0,1 mm 2 m/S 728 mmHg 58%
    15:00 +19°C° 0,1 mm 2 m/S 728 mmHg 58%
    16:00 +19°C° 0,1 mm 2 m/S 728 mmHg 58%
    17:00 +19°C° 0 mm 2 m/S 728 mmHg 63%
    18:00 +18°C° 0 mm 2 m/S 728 mmHg 68%
    19:00 +17°C° 0 mm 2 m/S 728 mmHg 73%
    20:00 +16°C° 0 mm 1 m/S 728 mmHg 78%
    21:00 +14°C° 0 mm 1 m/S 729 mmHg 82%
    22:00 +12°C° 0 mm 1 m/S 729 mmHg 86%
    23:00 +12°C° 0 mm 1 m/S 729 mmHg 88%

    25 Juni, Montag

    Zeit Temperatur Niederschläge Wind Luftdruck Luftfeuchtigkeit
    00:00 +11°C° 0 mm 1 m/S 729 mmHg 89%
    01:00 +11°C° 0 mm 1 m/S 729 mmHg 91%
    02:00 +10°C° 0 mm 1 m/S 729 mmHg 92%
    03:00 +10°C° 0 mm 1 m/S 729 mmHg 93%
    04:00 +10°C° 0 mm 1 m/S 729 mmHg 93%
    05:00 +11°C° 0 mm 1 m/S 729 mmHg 89%
    06:00 +13°C° 0 mm 1 m/S 729 mmHg 85%
    07:00 +14°C° 0 mm 1 m/S 729 mmHg 81%
    08:00 +16°C° 0 mm 1 m/S 729 mmHg 74%
    09:00 +18°C° 0 mm 2 m/S 729 mmHg 68%
    10:00 +19°C° 0 mm 2 m/S 729 mmHg 62%
    11:00 +20°C° 0 mm 2 m/S 729 mmHg 59%
    12:00 +21°C° 0 mm 3 m/S 729 mmHg 57%
    13:00 +21°C° 0 mm 3 m/S 728 mmHg 55%
    14:00 +22°C° 0 mm 3 m/S 728 mmHg 55%
    15:00 +22°C° 0 mm 3 m/S 728 mmHg 54%
    16:00 +22°C° 0 mm 3 m/S 728 mmHg 54%
    17:00 +21°C° 0 mm 3 m/S 729 mmHg 60%
    18:00 +20°C° 0 mm 3 m/S 729 mmHg 65%
    19:00 +19°C° 0 mm 2 m/S 729 mmHg 71%
    20:00 +18°C° 0 mm 2 m/S 729 mmHg 75%
    21:00 +16°C° 0 mm 2 m/S 729 mmHg 79%
    22:00 +14°C° 0 mm 2 m/S 730 mmHg 83%
    23:00 +14°C° 0 mm 2 m/S 730 mmHg 86%
    Mehr zeigen